Location: Newark
(12.4436°N, 0.6167°W)
Time: 02:28:11
(UTC+00:00)

Transit 2A - Pass Details

Date: 09 December 2019
Orbit: 601 x 958 km, 66.7° (Epoch: 23 January)

Event Time Altitude Azimuth Distance (km) Brightness Sun altitude
Rises 17:56:19 0° 321° (NW) 2,996 9.3 -5.1°
Reaches altitude 10° 17:58:46 10° 310° (NW) 2,133 8.7 -5.7°
Maximum altitude 18:02:57 29° 250° (WSW) 1,317 8.3 -6.6°
Drops below altitude 10° 18:07:30 10° 191° (S) 2,331 9.0 -7.7°
Sets 18:10:18 0° 180° (S) 3,326 9.6 -8.3°
